User: anonymous   Login
Location: Easter Hill Village
(37.9235°N, 122.3444°W)
Time: 03:01:26
(UTC+00:00)
Language:

Cosmos 1733 Rocket - Orbit

View from above orbital plane
View from above orbital plane
View from above satellite
View from above satellite

Ground track
Ground track

The orbit data is extracted from the following two-line orbital elements,

1 16612U 86018B   19320.13335896  .00000084  00000-0  70871-5 0  9992
2 16612  82.5179 188.9252 0018979 119.5945 353.4267 14.84243274722272
Epoch (UTC): 16 November 2019 03:12:02
Eccentricity: 0.0018979
inclination: 82.5179°
perigee height: 602 km
apogee height: 629 km
right ascension of ascending node: 188.9252°
argument of perigee: 119.5945°
revolutions per day: 14.84243274
mean anomaly at epoch: 353.4267°
orbit number at epoch: 72227

The dashed part of the orbit path shows where the satellite is in the earth's shadow,  

DLR